Showing default

ICEYE-X72, 68504

Orbit data source: Space-Track

ICEYE-X72, 68504 is a payload satellite owned by ICEYE (FI) in SSO that was launched on Mon, 30 Mar 2026 UTC via an FALCON 9 launch vehicle from the Air Force Western Test Range (AFWTR). Payload-class satellites include a variety of spacecraft equipped with specific instruments for various scientific and technological missions. These include communications satellites like Starlink; space stations such as the ISS; scientific satellites like the Hubble; Earth observation satellites from companies like Planet Labs, Umbra, and HawkEye 360; GPS; miniature CubeSats for education and research; and military/defense satellites.

Loading next visibility...
Identifier
68504, 2026-067CS
Orbit
SSO
Country
Flag of FIFI / FIN
Related business
Manufacturer
ICEYE
Mission
Operational spacecraft
Bus & Motor
ICEYE, Unknown motor
Mass
120 kg wet, 120 kg dry
Launch date (UTC)
2026-03-30 (2 months ago)
Launch vehicle
FALCON 9
Launch site
Air Force Western Test Range (AFWTR)
Object type
Payload
Rocket body
Debris
Shape & HBR
Unknown shape, 14.5 m
Radar Cross Section
Medium (>0.1 m² and <1 m²)

Expand to show TLE details & history
Last TLE update: 3 days ago

TLE from 3 days ago
0 ICEYE-X72
1 68504U 26067CS  26154.42715127  .00003769  00000-0  37673-3 0  9995
2 68504  97.7627 112.9239 0003052  55.0567 305.0938 14.92055464  9678
Epoch: 2026-06-03T10:15Z
TLE epoch observation values (Epoch: 2026-06-03T10:15:05.869Z)
Latitude
-0.00007°
Longitude
67.26353°
Altitude
593.347 km
Speed
7.564 km/s
True Right ascension
07h 31m 41s
True Declination
0° 00' 00"
Sunlit
Object was in daylight at epoch
Visualization orbit readout
Latitude
Unknown
Longitude
Unknown
Altitude
Unknown
Speed
Unknown
Apparent Right ascension
Unknown
Apparent Declination
Unknown
Sunlit
N/A
Visualization observer readout
Local Sidereal Time
03:10:28
Azimuth
Unknown
Elevation
Unknown
Doppler factor
Unknown
Orbital elements
Apogee altitude
590.672 km
Perigee altitude
586.42 km
Semi-major axis
6,966.683 km
Eccentricity
0.00031
Inclination
97.7627°
RAAN
112.9239°
Arg. of periapsis
55.0567°
True anomaly
305.06518°
Mean anomaly
305.0938°
Eccentric anomaly
305.07949°
Mean motion
3.73254 °/min
Orbital period
96.45 mins
BSTAR
0.00037673
Loading maneuver chart data...
Computing Atmospheric mass density...
Loading historical data...
Loading historical data...
Loading historical data...
Loading historical data...
Loading historical data...
Loading historical data...
Loading historical data...

Documentation

Showing up to 5 results
|